When you browse on this site, cookies collect data to enhance your experience and personalize the content and advertising you see.
Visit our Privacy Policy to learn more. By continuing to use the site, you agree to this use of cookies and data.
  • In Romania
  • List of Countries
  • For 7 days
  • Water Temperature
  • Satellite Maps
  • Weather Map
  • Weather Widgets
  • user-avatar
    Login

    Hourly Weather Drezdenko

    Today, 19 March, Tuesday

    Time Temperature Precipitation Wind Pressure Humidity
    00:00 +1°C° 0 mm 5 mps 759 mmHg 78%
    01:00 0°C° 0 mm 4 mps 759 mmHg 84%
    02:00 0°C° 0 mm 4 mps 760 mmHg 85%
    03:00 0°C° 0 mm 4 mps 760 mmHg 87%
    04:00 0°C° 0 mm 4 mps 761 mmHg 89%
    05:00 0°C° 0 mm 4 mps 761 mmHg 89%
    06:00 0°C° 0 mm 4 mps 762 mmHg 88%
    07:00 +1°C° 0 mm 3 mps 763 mmHg 88%
    08:00 +2°C° 0 mm 3 mps 763 mmHg 83%
    09:00 +3°C° 0 mm 3 mps 764 mmHg 78%
    10:00 +4°C° 0 mm 4 mps 764 mmHg 73%
    11:00 +5°C° 0.1 mm 3 mps 764 mmHg 67%
    12:00 +7°C° 0.1 mm 3 mps 765 mmHg 61%
    13:00 +8°C° 0.1 mm 3 mps 765 mmHg 55%
    14:00 +8°C° 0.1 mm 3 mps 765 mmHg 54%
    15:00 +8°C° 0.1 mm 3 mps 765 mmHg 54%
    16:00 +8°C° 0.1 mm 3 mps 765 mmHg 54%
    17:00 +7°C° 0.1 mm 2 mps 766 mmHg 60%
    18:00 +6°C° 0.1 mm 2 mps 766 mmHg 66%
    19:00 +6°C° 0.1 mm 1 mps 767 mmHg 71%
    20:00 +6°C° 0 mm 1 mps 767 mmHg 75%
    21:00 +5°C° 0 mm 1 mps 768 mmHg 78%
    22:00 +3°C° 0 mm 2 mps 769 mmHg 81%
    23:00 +3°C° 0 mm 1 mps 769 mmHg 79%

    Tomorrow, 20 March, Wednesday

    Time Temperature Precipitation Wind Pressure Humidity
    00:00 +3°C° 0 mm 1 mps 769 mmHg 77%
    01:00 +2°C° 0 mm 1 mps 770 mmHg 75%
    02:00 +2°C° 0 mm 1 mps 770 mmHg 76%
    03:00 +1°C° 0 mm 1 mps 770 mmHg 77%
    04:00 +1°C° 0 mm 1 mps 770 mmHg 78%
    05:00 +1°C° 0 mm 1 mps 770 mmHg 78%
    06:00 +2°C° 0 mm 1 mps 771 mmHg 78%
    07:00 +2°C° 0 mm 1 mps 771 mmHg 78%
    08:00 +3°C° 0 mm 2 mps 771 mmHg 69%
    09:00 +5°C° 0 mm 2 mps 772 mmHg 61%
    10:00 +7°C° 0 mm 3 mps 772 mmHg 52%
    11:00 +8°C° 0 mm 3 mps 772 mmHg 50%
    12:00 +8°C° 0 mm 4 mps 772 mmHg 48%
    13:00 +10°C° 0 mm 4 mps 772 mmHg 46%
    14:00 +10°C° 0 mm 4 mps 771 mmHg 46%
    15:00 +11°C° 0 mm 4 mps 771 mmHg 46%
    16:00 +11°C° 0 mm 4 mps 771 mmHg 46%
    17:00 +8°C° 0 mm 4 mps 771 mmHg 53%
    18:00 +8°C° 0 mm 3 mps 771 mmHg 60%
    19:00 +7°C° 0 mm 3 mps 771 mmHg 67%
    20:00 +7°C° 0 mm 3 mps 771 mmHg 68%
    21:00 +7°C° 0 mm 3 mps 772 mmHg 70%
    22:00 +8°C° 0 mm 3 mps 772 mmHg 72%
    23:00 +8°C° 0 mm 3 mps 772 mmHg 76%

    Day after tomorrow, 21 March, Thursday

    Time Temperature Precipitation Wind Pressure Humidity
    00:00 +7°C° 0 mm 2 mps 772 mmHg 80%
    01:00 +7°C° 0 mm 2 mps 772 mmHg 84%
    02:00 +7°C° 0 mm 2 mps 772 mmHg 87%
    03:00 +7°C° 0 mm 2 mps 772 mmHg 90%
    04:00 +7°C° 0 mm 2 mps 772 mmHg 93%
    05:00 +7°C° 0 mm 2 mps 772 mmHg 94%
    06:00 +7°C° 0 mm 2 mps 772 mmHg 94%
    07:00 +7°C° 0 mm 2 mps 772 mmHg 95%
    08:00 +8°C° 0 mm 2 mps 772 mmHg 90%
    09:00 +9°C° 0 mm 3 mps 773 mmHg 85%
    10:00 +10°C° 0 mm 3 mps 773 mmHg 80%
    11:00 +10°C° 0 mm 3 mps 773 mmHg 79%
    12:00 +11°C° 0 mm 3 mps 772 mmHg 78%
    13:00 +11°C° 0 mm 3 mps 772 mmHg 77%
    14:00 +11°C° 0 mm 3 mps 772 mmHg 77%
    15:00 +11°C° 0 mm 3 mps 772 mmHg 78%
    16:00 +12°C° 0 mm 2 mps 771 mmHg 78%
    17:00 +12°C° 0 mm 2 mps 771 mmHg 81%
    18:00 +12°C° 0 mm 2 mps 771 mmHg 84%
    19:00 +10°C° 0 mm 2 mps 771 mmHg 87%
    20:00 +10°C° 0 mm 2 mps 771 mmHg 87%
    21:00 +10°C° 0 mm 2 mps 771 mmHg 87%
    22:00 +10°C° 0 mm 2 mps 771 mmHg 88%
    23:00 +10°C° 0 mm 2 mps 771 mmHg 88%

    22 March, Friday

    Time Temperature Precipitation Wind Pressure Humidity
    00:00 +10°C° 0 mm 2 mps 771 mmHg 88%
    01:00 +10°C° 0 mm 2 mps 771 mmHg 88%
    02:00 +10°C° 0 mm 2 mps 771 mmHg 89%
    03:00 +10°C° 0 mm 2 mps 771 mmHg 90%
    04:00 +10°C° 0 mm 2 mps 770 mmHg 90%
    05:00 +10°C° 0 mm 2 mps 771 mmHg 90%
    06:00 +10°C° 0 mm 2 mps 771 mmHg 90%
    07:00 +10°C° 0 mm 2 mps 771 mmHg 90%
    08:00 +12°C° 0 mm 2 mps 771 mmHg 84%
    09:00 +13°C° 0 mm 2 mps 771 mmHg 79%
    10:00 +13°C° 0 mm 3 mps 771 mmHg 74%
    11:00 +14°C° 0 mm 3 mps 770 mmHg 67%
    12:00 +16°C° 0 mm 3 mps 770 mmHg 61%
    13:00 +17°C° 0 mm 3 mps 769 mmHg 55%
    14:00 +17°C° 0 mm 3 mps 769 mmHg 55%
    15:00 +18°C° 0 mm 3 mps 769 mmHg 56%
    16:00 +18°C° 0 mm 2 mps 768 mmHg 57%
    17:00 +16°C° 0 mm 2 mps 768 mmHg 63%
    18:00 +15°C° 0 mm 2 mps 768 mmHg 69%
    19:00 +13°C° 0 mm 1 mps 768 mmHg 76%
    20:00 +13°C° 0 mm 1 mps 768 mmHg 77%
    21:00 +12°C° 0 mm 2 mps 768 mmHg 79%
    22:00 +12°C° 0 mm 2 mps 768 mmHg 81%
    23:00 +10°C° 0 mm 2 mps 768 mmHg 82%

    23 March, Saturday

    Time Temperature Precipitation Wind Pressure Humidity
    00:00 +10°C° 0 mm 2 mps 767 mmHg 84%
    01:00 +9°C° 0 mm 2 mps 767 mmHg 85%
    02:00 +9°C° 0 mm 2 mps 767 mmHg 86%
    03:00 +9°C° 0 mm 2 mps 767 mmHg 86%
    04:00 +8°C° 0 mm 2 mps 767 mmHg 86%
    05:00 +8°C° 0 mm 2 mps 767 mmHg 85%
    06:00 +8°C° 0 mm 2 mps 767 mmHg 85%
    07:00 +9°C° 0 mm 2 mps 767 mmHg 84%
    08:00 +12°C° 0 mm 2 mps 767 mmHg 77%
    09:00 +14°C° 0 mm 2 mps 767 mmHg 70%
    10:00 +16°C° 0 mm 2 mps 767 mmHg 63%
    11:00 +17°C° 0 mm 2 mps 767 mmHg 59%
    12:00 +18°C° 0 mm 3 mps 766 mmHg 55%
    13:00 +19°C° 0 mm 3 mps 766 mmHg 51%
    14:00 +19°C° 0 mm 3 mps 766 mmHg 52%
    15:00 +19°C° 0 mm 3 mps 766 mmHg 53%
    16:00 +18°C° 0 mm 3 mps 766 mmHg 55%
    17:00 +16°C° 0 mm 3 mps 766 mmHg 63%
    18:00 +14°C° 0 mm 3 mps 766 mmHg 72%
    19:00 +12°C° 0 mm 3 mps 766 mmHg 80%
    20:00 +12°C° 0 mm 2 mps 766 mmHg 84%
    21:00 +10°C° 0 mm 2 mps 766 mmHg 88%
    22:00 +9°C° 0 mm 2 mps 766 mmHg 92%
    23:00 +8°C° 0 mm 2 mps 766 mmHg 91%

    24 March, Sunday

    Time Temperature Precipitation Wind Pressure Humidity
    00:00 +7°C° 0 mm 2 mps 766 mmHg 91%
    01:00 +8°C° 0 mm 1 mps 766 mmHg 90%
    02:00 +7°C° 0 mm 1 mps 766 mmHg 88%
    03:00 +7°C° 0 mm 1 mps 765 mmHg 87%
    04:00 +7°C° 0 mm 1 mps 765 mmHg 85%
    05:00 +7°C° 0 mm 1 mps 765 mmHg 82%
    06:00 +8°C° 0 mm 1 mps 765 mmHg 79%
    07:00 +8°C° 0 mm 1 mps 764 mmHg 75%
    08:00 +10°C° 0 mm 1 mps 764 mmHg 70%
    09:00 +11°C° 0 mm 0 mps 764 mmHg 65%
    10:00 +12°C° 0 mm 0 mps 764 mmHg 60%
    11:00 +14°C° 0 mm 1 mps 763 mmHg 61%
    12:00 +14°C° 0 mm 2 mps 763 mmHg 62%
    13:00 +13°C° 0 mm 3 mps 763 mmHg 62%
    14:00 +13°C° 0.2 mm 3 mps 762 mmHg 63%
    15:00 +12°C° 0.2 mm 4 mps 762 mmHg 64%
    16:00 +11°C° 0.2 mm 4 mps 762 mmHg 65%
    17:00 +10°C° 0 mm 4 mps 762 mmHg 67%
    18:00 +9°C° 0 mm 3 mps 762 mmHg 69%
    19:00 +8°C° 0 mm 3 mps 762 mmHg 72%
    20:00 +7°C° 0 mm 3 mps 762 mmHg 72%
    21:00 +6°C° 0 mm 4 mps 762 mmHg 73%
    22:00 +5°C° 0 mm 4 mps 762 mmHg 73%
    23:00 +5°C° 0 mm 5 mps 762 mmHg 74%
    Show more